Location: Kellogg
(38.0159°N, 90.0546°W)
Time: 23:15:53
(UTC+00:00)

Vanguard 2 - Pass Details

Date: 23 September 2024
Orbit: 552 x 2910 km, 32.9° (Epoch: 09 October)

Event Time Altitude Azimuth Distance (km) Brightness Sun altitude
Rises 12:38:44 0° 263° (W) 3,384 10.2 8.9°
Reaches altitude 10° 12:41:37 10° 246° (WSW) 2,723 9.9 9.4°
Maximum altitude 12:46:15 20° 201° (SSW) 2,533 10.1 10.3°
Drops below altitude 10° 12:52:30 10° 160° (SSE) 3,837 11.6 11.5°
Sets 12:57:39 0° 146° (SE) 5,324 12.5 12.5°
